Miscellaneous Local Product
Issued by NWS Hastings, NE

Home | Current Version | Previous Version | Graphics & Text | Print | Product List | Glossary On
Versions: 1 2 3 4 5 6 7 8 9 10 11 12 13 14 15 16 17 18 19 20 21 22 23 24 25 26 27 28 29 30 31 32 33 34 35 36 37 38 39 40 41 42 43 44 45 46 47 48 49 50
337
AXUS43 KGID 281502
MISGRI

GID CWA HOURLY WEATHER ROUNDUP
NATIONAL WEATHER SERVICE HASTINGS NE
1000 AM CDT TUE MAR 28 2017

NOTE: "FAIR" INDICATES FEW OR NO CLOUDS BELOW 12,000 FEET WITH NO
SIGNIFICANT WEATHER AND/OR OBSTRUCTIONS TO VISIBILITY.

...SOUTH CENTRAL NEBRASKA...

CITY           SKY/WX    TMP DP  RH WIND       PRES   REMARKS
GRAND ISLAND   MOSUNNY   41  41 100 E6        30.09R FOG
HASTINGS       CLOUDY    44  40  85 SE5       30.08R
KEARNEY        CLOUDY    46  41  81 E10       30.06S
ORD            CLOUDY    45  41  86 SE6       30.06S FOG
YORK           MOSUNNY   45  45 100 E9        30.10R
AURORA         MOSUNNY   42  42 100 E9        30.09R
LEXINGTON      CLOUDY    45  43  95 SE10      30.03S FOG
HOLDREGE       CLOUDY    46  45  97 SE13      30.02F
HEBRON         PTSUNNY   44  40  87 E6        30.08F

...NEBRASKA PANHANDLE...

CITY           SKY/WX    TMP DP  RH WIND       PRES   REMARKS
CHADRON        RAIN      44  42  93 CALM      30.00R FOG
ALLIANCE       RAIN      44  42  93 E10       29.95S FOG
SCOTTSBLUFF    CLOUDY    46  43  89 SE13      29.92R
SIDNEY         LGT RAIN  44  43  96 SE15G22   29.91R FOG

...WESTERN AND NORTH CENTRAL NEBRASKA...

CITY           SKY/WX    TMP DP  RH WIND       PRES   REMARKS
VALENTINE      CLOUDY    46  42  86 E10       30.05R
AINSWORTH      LGT RAIN  42  42 100 SE6       30.06S
ONEILL         CLOUDY    44  43  96 SW5       30.09R FOG
BROKEN BOW     CLOUDY    44  43  96 SE10      30.04R FOG
IMPERIAL       LGT RAIN  45  43  93 SE13      29.95R FOG
NORTH PLATTE   LGT RAIN  45  43  93 SE13      30.01S FOG
MCCOOK         LGT RAIN  46  45  96 SE12      29.99R FOG

...EASTERN NEBRASKA...

CITY           SKY/WX    TMP DP  RH WIND       PRES   REMARKS
NORFOLK        CLOUDY    42  40  92 E5        30.09S
SO SIOUX CITY  SUNNY     43  40  89 CALM      30.13R
TEKAMAH        MOSUNNY   45  41  86 N8        30.11S
COLUMBUS       CLOUDY    43  39  87 E3        30.11R
ALBION         FOG       39  38  94 CALM      30.09S VSB<1/4
OMAHA EPPLEY   CLOUDY    43  39  86 N6        30.12R
MILLARD        CLOUDY    48  42  78 E5        30.11S
LINCOLN        CLOUDY    45  42  89 CALM      30.12R FOG
NEBRASKA CITY  CLOUDY    46  40  77 E6        30.11R
BEATRICE       CLOUDY    48  44  84 E6        30.10R
FALLS CITY     CLOUDY    48  43  82 E7        30.10R

...NORTHERN KANSAS...

CITY           SKY/WX    TMP DP  RH WIND       PRES   REMARKS
GOODLAND       LGT RAIN  45  45 100 SE20      29.90S FOG
HILL CITY      LGT RAIN  47  47 100 E8        30.00F FOG
NORTON         CLOUDY    43  39  87 E9        30.01S FOG
PHILLIPSBURG   CLOUDY    46  46 100 E9        30.04S FOG
HAYS             N/A     46  45  96 E10       30.01S FOG
RUSSELL        CLOUDY    48  46  93 E7        30.01F FOG
CONCORDIA      CLOUDY    45  44  97 E7        30.06R
SALINA         CLOUDY    54  45  71 E12       30.05R
TOPEKA         CLOUDY    50  46  86 E7        30.08R



USA.gov is the U.S. government's official web portal to all federal, state and local government web resources and services.